Hourly Data Report for May 18, 2021

TOBERMORY RCS
ONTARIO
Current Station Operator: ECCC - MSC

45°14'00.000" N
81°38'00.000" W
213.50 m
6128330
71767
TTR

Download Data

Hourly Data (May 2021)
Hourly Data Report for May 18, 2021
TIME
LST
Temp Definition
°C
Dew Point Definition
°C
Rel Hum Definition
%
Precip. Amount Definition
mm

Wind Dir Definition
10's deg

Wind Spd Definition
km/h
Visibility Definition
km
Stn Press Definition
kPa
Hmdx Definition


Wind Chill Definition


Weather Definition


00:00 11.8 6.1 68 0.0 16 6   99.85     LegendNANA
01:00 11.8 5.7 66 0.0 17 6   99.86     LegendNANA
02:00 13.4 5.8 60 0.0 20 8   99.87     LegendNANA
03:00 11.7 6.0 68 0.0 20 8   99.88     LegendNANA
04:00 10.3 6.4 77 0.0 18 7   99.92     LegendNANA
05:00 7.8 5.7 87 0.0 21 3   99.96     LegendNANA
06:00 9.6 7.3 86 0.0 19 4   100.02     LegendNANA
07:00 11.4 8.3 81 0.0 23 4   100.08     LegendNANA
08:00 17.8 9.1 56 0.0 0 1   100.10     LegendNANA
09:00 17.8 9.8 59 0.0 22 5   100.13     LegendNANA
10:00 19.0 9.4 54 0.0 24 8   100.14     LegendNANA
11:00 19.6 9.1 51 0.0 24 7   100.13     LegendNANA
12:00 20.2 7.7 44 0.0 22 8   100.12     LegendNANA
13:00 19.5 8.0 47 0.0 23 11   100.16     LegendNANA
14:00 20.2 9.1 49 0.0 23 11   100.12     LegendNANA
15:00 19.9 7.0 43 0.0 24 9   100.08     LegendNANA
16:00 20.7 6.9 41 0.0 25 9   100.01     LegendNANA
17:00 18.7 7.6 48 0.0 22 9   100.01     LegendNANA
18:00 18.4 6.4 45 0.0 19 7   99.97     LegendNANA
19:00 15.5 7.2 58 0.0 18 6   99.97     LegendNANA
20:00 11.9 8.0 77 0.0 17 8   99.96     LegendNANA
21:00 11.4 8.4 82 0.0 17 6   100.00     LegendNANA
22:00 11.0 7.7 80 0.0 14 6   99.99     LegendNANA
23:00 12.2 6.8 69 0.0 18 6   99.99     LegendNANA

Notes on Data Quality.

Legend

  • E = Estimated
  • M = Missing
  • NA = Not Available*
  • [empty] = Indicates an unobserved value
Date modified: